Farmville, VA

5:50 PM EDT on October 17, 2017 (GMT -0400)
Farmville Regional

Weather History for KFVX - August, 2012

Change the Weather History Date:

Wednesday, August 1, 2012

  Actual Average Record
Temperature  
Mean Temperature 80 °F -  
Max Temperature 93 °F 88 °F 98 °F (1954)
Min Temperature 66 °F 64 °F 5 °F (1997)
Cooling Degree Days 14    
Growing Degree Days 30 (Base 50)    
Moisture  
Dew Point 64 °F    
Average Humidity 64    
Maximum Humidity 100    
Minimum Humidity 26    
Precipitation  
Precipitation 0.14 in - - ()
Sea Level Pressure  
Sea Level Pressure 29.87 in    
Wind  
Wind Speed 3 mph (SW)    
Max Wind Speed 8 mph    
Max Gust Speed 18 mph    
Visibility 9 miles    
Events Rain , Thunderstorm    
Averages and records for this station are not official NWS values.
T = Trace of Precipitation, MM = Missing Value Source: NWS Daily Summary

Daily Weather History Graph

Daily Weather History Graph

Search for Another Location

Airport or City:

Trip Planner

Search our weather history database for the weather conditions in past years. The results will help you decide how hot, cold, wet, or windy it might be!

Date:

Astronomy

Aug. 01, 2012 Rise Set
Actual Time 6:18 AM EDT 8:21 PM EDT
Civil Twilight 5:49 AM EDT 8:49 PM EDT
Nautical Twilight 5:14 AM EDT 9:24 PM EDT
Astronomical Twilight 4:36 AM EDT 10:02 PM EDT
Moon 7:51 PM EDT (8/1) 5:45 AM EDT (8/1)
Length of Visible Light 15h 00m
Length of Day
14h 02m
Full, 100% of the Moon is Illuminated
Aug 1
Full
Aug 1
Full
Aug 9
Last Quarter
Aug 17
New
Aug 24
First Quarter

Hourly Weather History & Observations

Time (EDT) Temp. Heat Index Dew Point Humidity Pressure Visibility Wind Dir Wind Speed Gust Speed Precip Events Conditions
12:15 AM 73.4 °F - 69.8 °F 88% 29.96 in 10.0 mi North 8.1 mph 18.4 mph N/A Thunderstorm Overcast
12:35 AM 71.6 °F - 66.2 °F 83% 29.96 in 10.0 mi North 5.8 mph - N/A   Overcast
1:15 AM 69.8 °F - 66.2 °F 88% 29.95 in 10.0 mi Calm Calm - N/A Thunderstorm Scattered Clouds
1:35 AM 69.8 °F - 66.2 °F 88% 29.94 in 10.0 mi Calm Calm - N/A Rain , Thunderstorm Light Thunderstorms and Rain
1:55 AM 69.8 °F - 66.2 °F 88% 29.93 in 10.0 mi Calm Calm - N/A Rain , Thunderstorm Rain
2:15 AM 68.0 °F - 66.2 °F 94% 29.93 in 10.0 mi Calm Calm - N/A Rain Light Rain
2:35 AM 68.0 °F - 66.2 °F 94% 29.94 in 10.0 mi SSW 6.9 mph - 0.03 in Rain , Thunderstorm Light Thunderstorms and Rain
3:15 AM 69.8 °F - 66.2 °F 88% 29.91 in 5.0 mi Calm Calm - 0.05 in Rain Rain
3:35 AM 69.8 °F - 66.2 °F 88% 29.89 in 10.0 mi Calm Calm - 0.10 in Rain Rain
3:55 AM 69.8 °F - 66.2 °F 88% 29.87 in 10.0 mi SSE 8.1 mph - N/A   Scattered Clouds
4:15 AM 69.8 °F - 66.2 °F 88% 29.88 in 10.0 mi NNW 4.6 mph - N/A   Scattered Clouds
4:35 AM 69.8 °F - 66.2 °F 88% 29.87 in 10.0 mi Calm Calm - 0.01 in   Clear
4:55 AM 68.0 °F - 66.2 °F 94% 29.88 in 5.0 mi SW 4.6 mph - N/A   Scattered Clouds
5:15 AM 68.0 °F - 66.2 °F 94% 29.87 in 7.0 mi Calm Calm - N/A   Mostly Cloudy
5:35 AM 68.0 °F - 66.2 °F 94% 29.87 in 5.0 mi Calm Calm - N/A   Mostly Cloudy
5:55 AM 68.0 °F - 66.2 °F 94% 29.88 in 5.0 mi Calm Calm - N/A   Mostly Cloudy
6:15 AM 66.2 °F - 66.2 °F 100% 29.89 in 4.0 mi Calm Calm - N/A   Overcast
6:35 AM 66.2 °F - 66.2 °F 100% 29.89 in 3.0 mi Calm Calm - N/A   Scattered Clouds
6:55 AM 68.0 °F - 66.2 °F 94% 29.89 in 4.0 mi Calm Calm - N/A   Clear
7:15 AM 68.0 °F - 66.2 °F 94% 29.89 in 5.0 mi Calm Calm - N/A   Clear
7:35 AM 68.0 °F - 66.2 °F 94% 29.90 in 5.0 mi Calm Calm - N/A   Clear
7:55 AM 69.8 °F - 68.0 °F 94% 29.90 in 10.0 mi Calm Calm - N/A   Clear
8:15 AM 69.8 °F - 68.0 °F 94% 29.91 in 10.0 mi Calm Calm - N/A   Clear
8:35 AM 71.6 °F - 68.0 °F 88% 29.92 in 10.0 mi Calm Calm - N/A   Clear
9:15 AM 73.4 °F - 66.2 °F 78% 29.91 in 10.0 mi WSW 3.5 mph - N/A   Clear
9:35 AM 75.2 °F - 66.2 °F 73% 29.91 in 10.0 mi SSW 3.5 mph - N/A   Clear
9:55 AM 78.8 °F - 62.6 °F 57% 29.91 in 10.0 mi SSW 4.6 mph - N/A   Clear
10:15 AM 78.8 °F - 64.4 °F 61% 29.90 in 10.0 mi WSW 3.5 mph - N/A   Clear
10:35 AM 80.6 °F 82.3 °F 64.4 °F 58% 29.90 in 10.0 mi SSW 4.6 mph - N/A   Clear
11:15 AM 84.2 °F 85.0 °F 62.6 °F 48% 29.90 in 10.0 mi SSW 6.9 mph - N/A   Clear
11:35 AM 84.2 °F 84.4 °F 60.8 °F 45% 29.89 in 10.0 mi SW 3.5 mph - N/A   Clear
12:15 PM 87.8 °F 87.6 °F 60.8 °F 40% 29.88 in 10.0 mi WSW 5.8 mph - N/A   Clear
12:35 PM 87.8 °F 87.6 °F 60.8 °F 40% 29.87 in 10.0 mi SW 3.5 mph - N/A   Clear
1:15 PM 89.6 °F 88.9 °F 59.0 °F 36% 29.86 in 10.0 mi NNE 3.5 mph - N/A   Clear
1:35 PM 89.6 °F 88.1 °F 57.2 °F 33% 29.85 in 10.0 mi SSW 4.6 mph - N/A   Clear
2:15 PM 89.6 °F 89.5 °F 60.8 °F 38% 29.84 in 10.0 mi South 3.5 mph - N/A   Clear
2:35 PM 91.4 °F 90.7 °F 59.0 °F 34% 29.83 in 10.0 mi WSW 4.6 mph - N/A   Scattered Clouds
2:55 PM 91.4 °F 90.7 °F 59.0 °F 34% 29.83 in 10.0 mi SW 5.8 mph - N/A   Scattered Clouds
3:15 PM 91.4 °F 89.9 °F 57.2 °F 31% 29.82 in 10.0 mi South 3.5 mph - N/A   Scattered Clouds
3:35 PM 93.2 °F 91.9 °F 57.2 °F 30% 29.82 in 10.0 mi SW 3.5 mph - N/A   Clear
3:55 PM 93.2 °F 90.8 °F 53.6 °F 26% 29.81 in 10.0 mi Calm Calm - N/A   Clear
4:15 PM 93.2 °F 91.9 °F 57.2 °F 30% 29.81 in 10.0 mi ESE 5.8 mph - N/A   Scattered Clouds
4:35 PM 93.2 °F 91.9 °F 57.2 °F 30% 29.81 in 10.0 mi ENE 4.6 mph - N/A   Overcast
4:55 PM 93.2 °F 91.3 °F 55.4 °F 28% 29.80 in 10.0 mi Calm Calm - N/A   Mostly Cloudy
5:15 PM 91.4 °F 89.9 °F 57.2 °F 31% 29.80 in 10.0 mi Calm Calm - N/A   Scattered Clouds
5:35 PM 91.4 °F 89.9 °F 57.2 °F 31% 29.81 in 10.0 mi Calm Calm - N/A   Scattered Clouds
5:55 PM 91.4 °F 90.7 °F 59.0 °F 34% 29.81 in 10.0 mi North 3.5 mph - N/A   Scattered Clouds
6:15 PM 89.6 °F 89.5 °F 60.8 °F 38% 29.81 in 10.0 mi North 3.5 mph - N/A   Scattered Clouds
6:35 PM 89.6 °F 91.1 °F 64.4 °F 43% 29.80 in 10.0 mi Calm Calm - N/A   Clear
6:55 PM 87.8 °F 89.4 °F 64.4 °F 46% 29.81 in 10.0 mi Calm Calm - N/A   Clear
7:15 PM 84.2 °F 86.6 °F 66.2 °F 55% 29.83 in 10.0 mi Calm Calm - N/A   Scattered Clouds
7:35 PM 87.8 °F 90.4 °F 66.2 °F 49% 29.83 in 10.0 mi Calm Calm - N/A   Mostly Cloudy
7:55 PM 84.2 °F 85.6 °F 64.4 °F 51% 29.84 in 10.0 mi SSE 8.1 mph - N/A   Scattered Clouds
8:15 PM 84.2 °F 85.0 °F 62.6 °F 48% 29.85 in 10.0 mi South 4.6 mph - N/A   Clear
8:35 PM 82.4 °F 83.4 °F 62.6 °F 51% 29.84 in 10.0 mi Calm Calm - N/A   Clear
8:55 PM 80.6 °F 81.8 °F 62.6 °F 54% 29.84 in 10.0 mi Calm Calm - N/A   Clear
9:15 PM 80.6 °F 81.8 °F 62.6 °F 54% 29.84 in 10.0 mi Calm Calm - N/A   Clear
9:35 PM 78.8 °F - 62.6 °F 57% 29.86 in 10.0 mi SSW 3.5 mph - N/A   Clear
9:55 PM 77.0 °F - 64.4 °F 65% 29.85 in 10.0 mi Calm Calm - N/A   Clear
10:35 PM 75.2 °F - 64.4 °F 69% 29.85 in 10.0 mi Calm Calm - N/A   Clear
10:55 PM 75.2 °F - 64.4 °F 69% 29.86 in 10.0 mi Calm Calm - N/A   Clear
11:15 PM 75.2 °F - 64.4 °F 69% 29.86 in 10.0 mi Calm Calm - N/A   Clear
11:35 PM 75.2 °F - 66.2 °F 73% 29.86 in 10.0 mi Calm Calm - N/A   Clear
11:55 PM 73.4 °F - 69.8 °F 88% 29.85 in 10.0 mi Calm Calm - N/A   Clear